Port Orchard, Washington, United States (98366)
Lat: 47.54N, Lon: 122.64W
Wx Zone: WAZ508
Local Info
Past Weather Observations for Thursday, May 21, 2015

NOTE: This archive is for the closest National Weather Service station to Port Orchard. Information may differ from the station used for current weather conditions.

Click here for Long-term Archive

Time Weather Temperature Dewpoint Humidity Pressure Winds Precip Visibility
23:55
Overcast
54°F / 12°C 52°F / 11°C 94% 29.95 in
(1014 mb)
SW 6.9 mph
(SW 11 kph)
- 10SM
23:35
Overcast
54°F / 12°C 52°F / 11°C 94% 29.92 in
(1013 mb)
SW 8.1 mph
(SW 13 kph)
- 10SM
23:15
Partly Cloudy
54°F / 12°C 52°F / 11°C 94% 29.95 in
(1014 mb)
SSE 5.8 mph
(SSE 9 kph)
- 10SM
22:55
Partly Cloudy
54°F / 12°C 52°F / 11°C 94% 29.92 in
(1013 mb)
SW 8.1 mph
(SW 13 kph)
- 10SM
22:35
Partly Cloudy
55°F / 13°C 52°F / 11°C 88% 29.92 in
(1013 mb)
SSE 8.1 mph
(SSE 13 kph)
- 10SM
22:15
Partly Cloudy
55°F / 13°C 52°F / 11°C 88% 29.92 in
(1013 mb)
SW 10.4 mph
(SW 17 kph)
- 10SM
21:55
Clear
57°F / 14°C 54°F / 12°C 88% 29.92 in
(1013 mb)
SW 8.1 mph
(SW 13 kph)
- 10SM
21:35
Clear
57°F / 14°C 54°F / 12°C 88% 29.92 in
(1013 mb)
SW 8.1 mph
(SW 13 kph)
- 10SM
21:15
Clear
57°F / 14°C 54°F / 12°C 88% 29.92 in
(1013 mb)
SW 9.2 mph
(SW 15 kph)
- 10SM
20:55
Clear
57°F / 14°C 54°F / 12°C 88% 29.92 in
(1013 mb)
SW 6.9 mph
(SW 11 kph)
- 10SM
20:35
Clear
61°F / 16°C 54°F / 12°C 77% 29.89 in
(1012 mb)
SW 8.1 mph
(SW 13 kph)
- 10SM
20:15
Clear
61°F / 16°C 54°F / 12°C 77% 29.89 in
(1012 mb)
SSE 9.2 mph
(SSE 15 kph)
- 10SM
19:55
Clear
63°F / 17°C 55°F / 13°C 77% 29.89 in
(1012 mb)
SSE 6.9 mph
(SSE 11 kph)
- 10SM
19:35
Clear
64°F / 18°C 55°F / 13°C 73% 29.86 in
(1011 mb)
SSE 8.1 mph
(SSE 13 kph)
- 10SM
19:15
Clear
66°F / 19°C 55°F / 13°C 68% 29.86 in
(1011 mb)
SSE 9.2 mph
(SSE 15 kph)
- 10SM
18:55
Clear
72°F / 22°C 55°F / 13°C 57% 29.86 in
(1011 mb)
SSW 6.9 mph
(SSW 11 kph)
- 10SM
18:35
Clear
73°F / 23°C 55°F / 13°C 53% 29.86 in
(1011 mb)
SW 6.9 mph
(SW 11 kph)
- 10SM
18:15
Clear
75°F / 24°C 55°F / 13°C 50% 29.86 in
(1011 mb)
SSW 5.8 mph
(SSW 9 kph)
- 10SM
17:55
Clear
75°F / 24°C 55°F / 13°C 50% 29.83 in
(1010 mb)
SSW 5.8 mph
(SSW 9 kph)
- 10SM
17:35
Clear
75°F / 24°C 55°F / 13°C 50% 29.86 in
(1011 mb)
SSW 9.2 mph
(SSW 15 kph)
- 10SM
17:15
Clear
75°F / 24°C 55°F / 13°C 50% 29.86 in
(1011 mb)
SW 9.2 mph
(SW 15 kph)
- 10SM
16:55
Clear
77°F / 25°C 55°F / 13°C 47% 29.86 in
(1011 mb)
SSW 8.1 mph
(SSW 13 kph)
- 10SM
16:35
Clear
77°F / 25°C 55°F / 13°C 47% 29.83 in
(1010 mb)
SW 9.2 mph
(SW 15 kph)
- 10SM
16:15
Clear
75°F / 24°C 55°F / 13°C 50% 29.86 in
(1011 mb)
SSW 9.2 mph
(SSW 15 kph)
- 10SM
15:55
Clear
77°F / 25°C 57°F / 14°C 51% 29.86 in
(1011 mb)
SW 10.4 mph
(SW 17 kph)
- 10SM
15:35
Clear
79°F / 26°C 57°F / 14°C 48% 29.86 in
(1011 mb)
SW 11.5 mph
(SW 19 kph)
- 10SM
15:15
Clear
79°F / 26°C 57°F / 14°C 48% 29.86 in
(1011 mb)
SSE 10.4 mph
(SSE 17 kph)
- 10SM
14:55
Clear
77°F / 25°C 57°F / 14°C 51% 29.86 in
(1011 mb)
SW 12.7 mph
(SW 20 kph)
- 10SM
14:35
Clear
75°F / 24°C 57°F / 14°C 54% 29.86 in
(1011 mb)
S 11.5 mph
(S 19 kph)
- 10SM
14:15
Clear
77°F / 25°C 57°F / 14°C 51% 29.86 in
(1011 mb)
SSW 11.5 mph
(SSW 19 kph)
- 10SM
13:55
Clear
79°F / 26°C 59°F / 15°C 51% 29.86 in
(1011 mb)
SW 9.2 mph
(SW 15 kph)
- 10SM
13:35
Clear
75°F / 24°C 59°F / 15°C 57% 29.86 in
(1011 mb)
SSE 10.4 mph
(SSE 17 kph)
- 10SM
13:15
Clear
75°F / 24°C 57°F / 14°C 54% 29.89 in
(1012 mb)
SW 5.8 mph
(SW 9 kph)
- 10SM
12:55
Clear
73°F / 23°C 57°F / 14°C 57% 29.89 in
(1012 mb)
S 5.8 mph
(S 9 kph)
- 10SM
12:35
Clear
73°F / 23°C 57°F / 14°C 57% 29.89 in
(1012 mb)
SW 6.9 mph
(SW 11 kph)
- 10SM
12:15
Clear
73°F / 23°C 57°F / 14°C 57% 29.89 in
(1012 mb)
SSE 6.9 mph
(SSE 11 kph)
- 10SM
11:55
Clear
72°F / 22°C 57°F / 14°C 61% 29.89 in
(1012 mb)
S 10.4 mph
(S 17 kph)
- 10SM
11:35
Clear
72°F / 22°C 57°F / 14°C 61% 29.89 in
(1012 mb)
S 10.4 mph
(S 17 kph)
- 10SM
11:15
Clear
73°F / 23°C 59°F / 15°C 61% 29.89 in
(1012 mb)
S 6.9 mph
(S 11 kph)
- 10SM
10:55
Clear
75°F / 24°C 57°F / 14°C 54% 29.89 in
(1012 mb)
Calm - 10SM
10:35
Clear
73°F / 23°C 57°F / 14°C 57% 29.89 in
(1012 mb)
Calm - 10SM
10:15
Clear
72°F / 22°C 57°F / 14°C 61% 29.89 in
(1012 mb)
SSW 4.6 mph
(SSW 7 kph)
- 10SM
09:55
Clear
68°F / 20°C 57°F / 14°C 69% 29.92 in
(1013 mb)
SW 4.6 mph
(SW 7 kph)
- 10SM
09:35
Clear
66°F / 19°C 57°F / 14°C 73% 29.92 in
(1013 mb)
Calm - 10SM
09:15
Clear
66°F / 19°C 57°F / 14°C 73% 29.92 in
(1013 mb)
Calm - 10SM
08:55
Clear
64°F / 18°C 57°F / 14°C 78% 29.92 in
(1013 mb)
Calm - 10SM
08:35
Clear
59°F / 15°C 55°F / 13°C 88% 29.92 in
(1013 mb)
Calm - 10SM
08:15
Partly Cloudy
59°F / 15°C 55°F / 13°C 88% 29.92 in
(1013 mb)
Calm - 10SM
07:55
Overcast
55°F / 13°C 54°F / 12°C 94% 29.92 in
(1013 mb)
SW 3.5 mph
(SW 6 kph)
- 2 1/2SM
07:35
Overcast
55°F / 13°C 55°F / 13°C 100% 29.92 in
(1013 mb)
SW 3.5 mph
(SW 6 kph)
- 1/4SM
07:15
Overcast
54°F / 12°C 54°F / 12°C 100% 29.92 in
(1013 mb)
Calm - 1/4SM
06:55
Overcast
54°F / 12°C 52°F / 11°C 94% 29.92 in
(1013 mb)
Calm - 1/4SM
06:35
Overcast
54°F / 12°C 54°F / 12°C 100% 29.92 in
(1013 mb)
Calm - 1/4SM
06:15
Overcast
52°F / 11°C 52°F / 11°C 100% 29.92 in
(1013 mb)
Calm - M1/4SM
05:55
Overcast
52°F / 11°C 52°F / 11°C 100% 29.92 in
(1013 mb)
Calm - M1/4SM
05:35
Overcast
52°F / 11°C 52°F / 11°C 100% 29.92 in
(1013 mb)
Calm - M1/4SM
05:15
Overcast
50°F / 10°C 50°F / 10°C 100% 29.92 in
(1013 mb)
Calm - M1/4SM
04:55
Overcast
50°F / 10°C 50°F / 10°C 100% 29.92 in
(1013 mb)
Calm - M1/4SM
04:35
Overcast
48°F / 9°C 48°F / 9°C 100% 29.92 in
(1013 mb)
Calm - M1/4SM
04:15
Overcast
48°F / 9°C 46°F / 8°C 94% 29.92 in
(1013 mb)
Calm - 1/4SM
03:55
Mostly Cloudy
48°F / 9°C 46°F / 8°C 94% 29.92 in
(1013 mb)
Calm - 1SM
03:35
Partly Cloudy
48°F / 9°C 46°F / 8°C 94% 29.92 in
(1013 mb)
Calm - 3SM
03:15
Overcast
48°F / 9°C 48°F / 9°C 100% 29.92 in
(1013 mb)
Calm - 1SM
02:55
Overcast
48°F / 9°C 48°F / 9°C 100% 29.92 in
(1013 mb)
Calm - 1/2SM
02:35
Mostly Cloudy
50°F / 10°C 48°F / 9°C 94% 29.92 in
(1013 mb)
Calm - 2 1/2SM
02:15
Clear
48°F / 9°C 46°F / 8°C 94% 29.92 in
(1013 mb)
Calm - 5SM
01:55
Clear
50°F / 10°C 48°F / 9°C 94% 29.92 in
(1013 mb)
Calm - 10SM
01:35
Clear
52°F / 11°C 50°F / 10°C 94% 29.92 in
(1013 mb)
Calm - 8SM
01:15
Clear
52°F / 11°C 52°F / 11°C 100% 29.92 in
(1013 mb)
Calm - 10SM
00:55
Clear
52°F / 11°C 50°F / 10°C 94% 29.92 in
(1013 mb)
Calm - 10SM
00:35
Clear
52°F / 11°C 52°F / 11°C 100% 29.89 in
(1012 mb)
Calm - 8SM
00:15
Clear
54°F / 12°C 54°F / 12°C 100% 29.92 in
(1013 mb)
Calm - 7SM
Time Weather Temperature Dewpoint Humidity Pressure Winds Precip Visibility


Weather for websites

WeatherForYou.com, LLC is not responsible for any damages or problems caused by this service. Current weather conditions are obtained from the closest station including government and personal stations which may have varying degrees of accuracy. Weather forecasts are derived from the NOAA NDFD. Like all things, this site belongs to Jesus Christ... He just trusts us to maintain it. If you have any questions or comments email webmaster@weatherforyou.com

Copyright © 2015, WeatherForYou.com LLC. All rights reserved.